Meteo Giornale » Osservazioni meteo Gran Bretagna » Londra City AP

ore: 05:20 - Osservazioni Meteo Londra City AP
Lat. 51° 30' N Lon. 0° 30' W Alt. 5 metri s.l.m.

coperto Europe/London

8 °C

Coperto

Temp. 24 Ore

4 °C

9 °C

Est

16.7 Km/h

Dew point 5 °C

Umidità 81 %

Visibilità  9 Km

Il sole sorge alle ore 07:56

Il sole tramonta alle ore 15:55

Data e Ora Cielo e Fenomeni T °C DP °C Um. % Pres. hPa Vis. km Vento km/h
Oggi h: 05:20 coperto Coperto 8 5 81 1022 9 E 16.7
Oggi h: 04:50 coperto Coperto 8 5 81 1022 10 E/SE 14.8
Oggi h: 04:20 coperto Coperto 8 5 81 1022 10 E/SE 14.8
Oggi h: 03:50 coperto Coperto 8 5 81 1022 10 E/SE 14.8
Oggi h: 03:20 coperto Coperto 8 5 81 1022 10 E/SE 16.7
Oggi h: 02:50 coperto Coperto 8 5 81 1023 10 E/SE 14.8
Oggi h: 02:20 coperto Coperto 8 5 81 1023 10 E/SE 14.8
Oggi h: 01:50 coperto Coperto 8 5 81 1023 10 E/SE 14.8
Oggi h: 01:20 coperto Coperto 8 5 81 1022 10 E/SE 14.8
Oggi h: 00:50 coperto_pioggia Pioggia Debole 8 5 81 1023 10 E/SE 13
Oggi h: 00:20 coperto_pioggia Pioggia Debole 8 5 81 1023 10 E/SE 13
Ieri h: 23:50 coperto_pioggia Pioggia Debole 7 6 93 1023 7 E/SE 13
Ieri h: 23:20 coperto_pioggia Pioggia Debole 7 6 93 1023 9 SE 14.8
Ieri h: 22:50 coperto_pioggia Pioggia Debole 7 5 87 1023 10 SE 13
Ieri h: 22:20 coperto_pioggia Pioggia Debole 7 5 87 1023 10 E/SE 13
Ieri h: 21:50 nuvoloso Nuvoloso 6 4 86 1023 10 E 11.1
Ieri h: 21:20 sereno Sereno 6 4 86 1023 10 E 11.1
Ieri h: 20:50 sereno Sereno 6 4 86 1023 10 E 14.8
Ieri h: 20:20 sereno Sereno 6 4 86 1023 9 E 13
Ieri h: 19:50 sereno Sereno 6 5 93 1023 9 E/NE 9.3
Ieri h: 19:20 sereno Sereno 6 4 86 1023 9 E 13
Ieri h: 18:50 sereno Sereno 6 4 86 1024 9 E 11.1
Ieri h: 18:20 poco_nuvoloso Poco Nuvoloso 7 4 81 1024 10 E 11.1
Ieri h: 17:50 poco_nuvoloso Poco Nuvoloso 7 4 81 1024 10 E 13
Ieri h: 17:20 sereno Sereno 7 4 81 1023 10 E 11.1
Ieri h: 16:50 sereno Sereno 8 5 81 1023 10 E/SE 11.1
Ieri h: 16:20 sereno Sereno 8 4 75 1023 10 E/SE 11.1
Ieri h: 15:50 sereno Sereno 8 4 75 1023 10 SE 7.4
Ieri h: 15:20 sereno Sereno 9 4 70 1024 10 SE 9.3
Ieri h: 14:50 sereno Sereno 9 4 70 1024 10 SE 9.3
Ieri h: 14:20 sereno Sereno 9 4 70 1024 10 SE 9.3
Ieri h: 13:50 sereno Sereno 9 5 75 1024 10 E/SE 9.3
Ieri h: 13:20 sereno Sereno 9 5 75 1025 10 E/SE 11.1
Ieri h: 12:50 sereno Sereno 9 5 75 1025 10 E/SE 11.1
Ieri h: 12:20 sereno Sereno 9 5 75 1025 10 E 7.4
Ieri h: 11:50 sereno Sereno 8 5 81 1025 10 E 9.3
Ieri h: 11:20 sereno Sereno 8 5 81 1025 10 E 7.4
Ieri h: 10:50 sereno Sereno 7 5 87 1026 10 N 5.5
Ieri h: 10:20 sereno Sereno 6 5 93 1026 10 N 5.5
Ieri h: 09:50 sereno Sereno 6 4 86 1026 10 N 5.5
Ieri h: 09:20 sereno Sereno 5 4 93 1026 10 E 7.4
Ieri h: 08:50 sereno Sereno 5 4 93 1026 10 N 5.5
Ieri h: 08:20 sereno Sereno 4 4 100 1026 10 N 0
Ieri h: 07:50 sereno Sereno 5 4 93 1026 10 N 1.8
Ieri h: 07:20 sereno Sereno 5 4 93 1026 10 N 3.7
Ieri h: 06:50 sereno Sereno 5 4 93 1026 10 N 0
Ieri h: 06:20 sereno Sereno 5 4 93 1026 10 N 1.8
Ieri h: 05:50 sereno Sereno 5 4 93 1026 10 SO 7.4
Ieri h: 05:20 sereno Sereno 5 4 93 1026 10 N 3.7